Location: Melbourne
(37.8170°S, 144.9670°E)
Time: 12:30:16
(UTC+10:00)

Daily predictions for brighter satellites

Satellite Brightness Start Highest point End
(mag) Time Altitude Azimuth Time Altitude Azimuth Time Altitude Azimuth
Thor Agena Rocket 3.6 17:32:32 10° NNE 17:37:37 89° E 17:42:46 10° SSW
SKYMED 2 3.6 17:36:14 10° NNE 17:40:36 90° E 17:45:02 10° SSW
SL-8 R/B 4.4 17:38:34 10° SW 17:43:06 37° SSE 17:47:35 10° E
SMAP 4.5 17:39:53 10° SE 17:43:15 19° E 17:46:34 10° NE
Cosmos 1812 4.2 17:40:50 10° SSE 17:43:39 18° ESE 17:46:25 10° ENE
Cosmos 1340 2.9 17:42:35 10° S 17:46:20 46° ESE 17:50:01 10° NNE
PEGASUS R/B 3.9 17:44:58 10° NNE 17:47:17 66° WNW 17:50:23 10° SSW
SWAS 4.5 17:45:07 10° NNW 17:49:22 70° ENE 17:53:40 10° SSE
Okean-O 4.5 17:49:52 10° S 17:53:51 32° WSW 17:57:49 10° NW
Sich 1 Rocket 3.6 17:49:55 10° N 17:54:25 74° E 17:58:58 10° S
Lacrosse 5 3.3 17:52:09 10° SSW 17:56:03 21° SSE 17:59:24 12° ESE
SL-27 R/B 4.0 17:56:30 10° SSE 17:58:55 17° ESE 18:01:21 10° ENE
GEOS 3 Rocket 3.7 17:54:54 10° SE 17:59:58 59° ENE 18:04:58 10° NNW
Okean 3 3.4 17:55:47 10° S 18:00:02 69° E 18:04:14 10° NNE
Cosmos 1844 Rocket 2.8 17:54:22 10° NNW 18:00:03 85° WSW 18:05:49 10° SSE
Cosmos 1553 Rocket 4.0 17:53:54 10° S 18:00:19 77° E 18:06:33 10° N
Cosmos 773 Rocket 4.0 17:56:52 10° SSW 18:02:14 85° ESE 18:07:28 10° NNE
BREEZE-M DEB (TANK) 3.5 17:56:52 10° NW 18:04:50 57° NE 18:07:11 16° ESE
Cosmos 1378 Rocket 3.5 18:01:01 10° S 18:05:32 77° E 18:10:01 10° N
COSMOS 2406 3.2 18:00:12 10° SSW 18:06:04 83° ESE 18:11:52 10° NNE
Cosmos 2082 Rocket 3.7 18:03:42 10° SSE 18:06:48 15° SE 18:07:47 14° ESE
DELTA 2 R/B (1) 3.7 18:01:29 10° WSW 18:07:10 82° NNW 18:12:49 10° ENE
YAOGAN 1 3.8 18:04:32 11° SE 18:07:49 23° E 18:11:17 10° NNE
CSL-04 Rocket 3.7 18:03:37 10° SSE 18:09:14 68° ENE 18:14:47 10° N
Cosmos 1975 Rocket 3.4 18:04:56 10° S 18:09:18 46° E 18:13:37 10° NNE
Cosmos 2112 Rocket 4.4 18:06:44 10° S 18:11:51 41° ESE 18:16:52 10° NE
Cosmos 1633 4.0 18:12:13 10° NE 18:14:46 19° E 18:14:46 19° E
OAO 3 Rocket 3.4 18:15:16 10° W 18:19:57 63° N 18:23:28 18° ENE
MSX 3.9 18:15:59 10° SSE 18:21:44 59° E 18:27:23 10° N
Atlas Centaur 2 3.3 18:22:11 10° NNW 18:24:41 17° NNE 18:26:50 12° NE
USA 215 4.1 18:18:29 10° SE 18:24:42 45° SW 18:30:53 10° WNW
Meteor 1-18 Rocket 4.3 18:21:22 10° S 18:27:12 64° E 18:33:02 10° NNE
ORS 1 (USA 231) 4.4 18:25:47 10° WSW 18:28:55 90° WNW 18:30:08 34° ENE
Meteor 1-25 Rocket 4.2 18:25:42 10° N 18:31:30 82° E 18:37:26 10° S
Cosmos 1680 Rocket 3.4 18:29:02 10° SSW 18:34:26 79° ESE 18:39:44 10° NNE
Cosmos 1484 Rocket 3.0 18:34:33 23° SE 18:36:42 48° E 18:40:34 10° N
IDEFIX/ARIANE 42P 3.1 18:33:00 10° S 18:38:12 61° WSW 18:43:20 10° NNW
ATLAS 2A CENTAUR R/B 4.0 18:34:10 10° NW 18:38:25 34° NNE 18:53:49 10° ENE
IRS-1A Rocket 4.2 18:34:51 10° SSE 18:40:28 77° ENE 18:46:04 10° N
Cosmos 2150 Rocket 4.5 18:37:07 10° NNE 18:41:56 38° ENE 18:43:24 31° ESE
Timation 1 Rocket 4.3 18:37:07 10° N 18:42:59 62° ENE 18:47:02 21° SE
SPOT 3 Rocket 3.9 18:40:50 23° SE 18:43:45 43° E 18:48:39 10° N
Cosmos 1833 Rocket 3.8 18:39:32 10° S 18:43:21 24° SE 18:43:21 24° SE
Cosmos 192 4.2 18:43:57 10° SSW 18:48:58 76° ESE 18:53:55 10° NNE
CZ-4C R/B 2.9 18:42:48 10° NNW 18:50:47 90° WSW 18:56:15 19° SSE
SEDSat Delta rocket 4.0 18:48:57 10° WNW 18:52:38 33° N 18:53:46 28° NE
CZ-2C R/B 3.4 18:47:44 10° S 18:52:48 49° WSW 18:57:43 10° NW
Cosmos 1602 4.3 18:51:26 10° NNE 18:54:25 40° NE 18:54:25 40° NE
USA 267 3.2 18:51:03 21° ENE 18:55:36 66° SE 19:02:10 10° SW
AQUARIUS 4.5 18:52:23 10° S 18:56:56 68° WSW 19:01:26 10° NNW
Ariane Rocket 4.3 18:52:17 10° S 18:57:01 39° WSW 19:01:42 10° NW
Celestis-02/Orion 38 4.5 18:55:21 26° SSE 18:58:28 78° ENE 19:03:40 10° NNW
Cosmos 990 Rocket 4.2 18:55:06 10° N 19:00:06 47° ENE 19:00:31 46° E
Cosmos 2297 3.7 18:57:54 10° N 19:03:24 56° ENE 19:04:42 45° ESE
Abrixas rocket 4.4 19:03:48 10° WSW 19:05:59 19° SSW 19:05:59 19° SSW
Cosmos 1898 Rocket 3.5 19:02:02 10° NNW 19:07:23 87° WSW 19:10:17 29° SSE
Okean 2 Rocket 4.5 19:04:29 10° NNW 19:08:38 38° WSW 19:12:50 10° S
CZ-4 R/B 2.8 19:10:39 12° S 19:13:55 36° WSW 19:17:31 10° NW
MOS 1 4.2 19:11:58 16° SSE 19:16:37 85° WSW 19:22:17 10° NNW
Cosmos 2278 Rocket 3.0 19:11:35 10° NW 19:17:03 48° WSW 19:21:17 17° S
Okean 1 4.1 19:14:01 10° SSW 19:18:00 51° W 19:21:53 10° N
SMAP 4.4 19:16:19 10° S 19:20:42 39° WSW 19:25:02 10° NW
BREEZE-M DEB (TANK) 3.3 19:11:50 10° NW 19:21:53 54° NE 19:21:56 54° NE
SL-8 R/B 4.1 19:21:04 10° WSW 19:25:50 59° NW 19:26:24 55° N
Cosmos 2315 Rocket 4.4 19:20:21 10° SSW 19:26:31 61° W 19:32:39 10° N
Meteor 1-19 Rocket 4.2 19:23:11 10° S 19:29:09 85° E 19:35:04 10° N
Cosmos 1937 Rocket 3.8 19:33:37 10° NNW 19:38:45 62° WSW 19:39:20 58° SW
Lacrosse 5 2.2 19:34:25 10° SW 19:38:40 60° SW 19:38:40 60° SW
YAOGAN 1 4.5 19:41:43 19° SSW 19:43:52 28° WSW 19:47:36 10° NW
Meteor 1-11 Rocket 4.0 19:38:19 10° NNW 19:44:17 70° W 19:46:15 44° S
Cosmos 2082 Rocket 3.0 19:45:50 10° SSW 19:49:43 44° SSW 19:49:43 44° SSW
Atlas Centaur 2 4.3 20:09:01 10° WNW 20:09:29 13° NW 20:09:29 13° NW
ATLAS 3B R/B 4.4 20:10:36 10° NNW 20:12:06 18° N 20:12:06 18° N
